Idabel, OK

11:29 AM CDT on September 29, 2016 (GMT -0500)
Idabel

Weather History for K4O4 - October, 2011

Change the Weather History Date:

Wednesday, October 5, 2011

  Actual Average (KDEQ) Record (KDEQ)
Temperature  
Mean Temperature 70 °F 66 °F  
Max Temperature 86 °F 79 °F 94 °F (2002)
Min Temperature 55 °F 54 °F 36 °F (2010)
Degree Days  
Heating Degree Days 0 2  
Month to date heating degree days 10  
Since 1 July heating degree days 19  
Cooling Degree Days 6 3  
Month to date cooling degree days 19  
Year to date cooling degree days 1884  
Growing Degree Days 20 (Base 50)    
Moisture  
Dew Point 39 °F    
Average Humidity 30    
Maximum Humidity 54    
Minimum Humidity 15    
Precipitation  
Precipitation 0.00 in 0.16 in 2.89 in (1998)
Month to date precipitation 0.80  
Year to date precipitation 36.00  
Snow  
Snow 0.00 in - - ()
Month to date snowfall  
Since 1 July snowfall  
Since 1 September snowfall  
Snow Depth -    
Sea Level Pressure  
Sea Level Pressure 30.13 in    
Wind  
Wind Speed 7 mph (ESE)    
Max Wind Speed 12 mph    
Max Gust Speed 16 mph    
Visibility 10 miles    
Events      
T = Trace of Precipitation, MM = Missing Value Source: NWS Daily Summary

Daily Weather History Graph

Daily Weather History Graph

Search for Another Location

Airport or City:

Trip Planner

Search our weather history database for the weather conditions in past years. The results will help you decide how hot, cold, wet, or windy it might be!

Date:

Astronomy

Oct. 05, 2011 Rise Set
Actual Time 7:16 AM CDT 6:58 PM CDT
Civil Twilight 6:51 AM CDT 7:23 PM CDT
Nautical Twilight 6:22 AM CDT 7:52 PM CDT
Astronomical Twilight 5:53 AM CDT 8:21 PM CDT
Moon 3:24 PM CDT (10/5) 1:20 AM CDT (10/5)
Length of Visible Light 12h 31m
Length of Day
11h 42m
Waxing Gibbous, 66% of the Moon is Illuminated
Oct 5
Waxing Gibbous
Oct 11
Full
Oct 19
Last Quarter
Oct 26
New
Nov 2
First Quarter

Hourly Weather History & Observations

Time (CDT) Temp. Dew Point Humidity Pressure Visibility Wind Dir Wind Speed Gust Speed Precip Events Conditions
1:35 AM 57.2 °F 37.4 °F 48% 30.16 in 10.0 mi East 6.9 mph - N/A   Clear
8:15 AM 55.4 °F 39.2 °F 54% 30.20 in 10.0 mi East 6.9 mph - N/A   Clear
8:35 AM 59.0 °F 39.2 °F 48% 30.21 in 10.0 mi East 8.1 mph - N/A   Clear
8:55 AM 60.8 °F 39.2 °F 45% 30.21 in 10.0 mi East 9.2 mph - N/A   Clear
9:35 AM 64.4 °F 41.0 °F 42% 30.21 in 10.0 mi East 5.8 mph - N/A   Clear
9:55 AM 68.0 °F 41.0 °F 37% 30.21 in 10.0 mi East 8.1 mph - N/A   Clear
10:15 AM 69.8 °F 42.8 °F 38% 30.21 in 10.0 mi ESE 5.8 mph - N/A   Clear
10:35 AM 71.6 °F 42.8 °F 35% 30.21 in 10.0 mi ESE 4.6 mph - N/A   Clear
10:55 AM 71.6 °F 44.6 °F 38% 30.21 in 10.0 mi SSE 3.5 mph - N/A   Clear
11:15 AM 71.6 °F 44.6 °F 38% 30.20 in 10.0 mi Calm Calm - N/A   Clear
11:35 AM 75.2 °F 44.6 °F 34% 30.20 in 10.0 mi Calm Calm - N/A   Clear
11:55 AM 75.2 °F 44.6 °F 34% 30.19 in 10.0 mi East 4.6 mph - N/A   Clear
12:15 PM 78.8 °F 42.8 °F 28% 30.18 in 10.0 mi East 6.9 mph - N/A   Clear
12:35 PM 78.8 °F 41.0 °F 26% 30.17 in 10.0 mi SSE 10.4 mph - N/A   Clear
1:15 PM 78.8 °F 41.0 °F 26% 30.16 in 10.0 mi SSE 9.2 mph - N/A   Clear
1:55 PM 80.6 °F 41.0 °F 24% 30.14 in 10.0 mi SE 4.6 mph - N/A   Clear
2:15 PM 82.4 °F 37.4 °F 20% 30.12 in 10.0 mi SE 9.2 mph - N/A   Clear
2:35 PM 84.2 °F 35.6 °F 18% 30.11 in 10.0 mi SSE 10.4 mph 16.1 mph N/A   Clear
2:55 PM 80.6 °F 37.4 °F 21% 30.10 in 10.0 mi SSE 6.9 mph - N/A   Clear
3:35 PM 86.0 °F 37.4 °F 18% 30.09 in 10.0 mi SE 4.6 mph - N/A   Clear
3:55 PM 86.0 °F 37.4 °F 18% 30.08 in 10.0 mi SSE 11.5 mph - N/A   Clear
4:15 PM 86.0 °F 33.8 °F 15% 30.07 in 10.0 mi SSE 10.4 mph - N/A   Clear
4:35 PM 86.0 °F 35.6 °F 17% 30.06 in 10.0 mi SSE 11.5 mph - N/A   Clear
5:15 PM 84.2 °F 32.0 °F 15% 30.05 in 10.0 mi SSE 10.4 mph - N/A   Clear
5:35 PM 82.4 °F 32.0 °F 16% 30.05 in 10.0 mi SSE 10.4 mph - N/A   Clear
5:55 PM 80.6 °F 33.8 °F 18% 30.05 in 10.0 mi SE 8.1 mph - N/A   Clear
6:15 PM 80.6 °F 35.6 °F 20% 30.05 in 10.0 mi SE 5.8 mph - N/A   Clear
6:35 PM 77.0 °F 35.6 °F 22% 30.04 in 10.0 mi ESE 6.9 mph - N/A   Clear
6:55 PM 77.0 °F 37.4 °F 24% 30.04 in 10.0 mi East 5.8 mph - N/A   Clear
7:15 PM 73.4 °F 37.4 °F 27% 30.05 in 10.0 mi ESE 4.6 mph - N/A   Clear
9:15 PM 69.8 °F 37.4 °F 31% 30.06 in 10.0 mi East 8.1 mph - N/A   Clear
10:15 PM 68.0 °F 37.4 °F 33% 30.07 in 10.0 mi East 9.2 mph - N/A   Clear
10:55 PM 68.0 °F 39.2 °F 35% 30.08 in 10.0 mi East 5.8 mph - N/A   Clear
11:35 PM 64.4 °F 41.0 °F 42% 30.08 in 10.0 mi East 6.9 mph - N/A   Clear
11:55 PM 64.4 °F 41.0 °F 42% 30.07 in 10.0 mi East 8.1 mph - N/A   Clear